Time,TemperatureF,DewpointF,PressureIn,WindDirection,WindDirectionDegrees,WindSpeedMPH,WindSpeedGustMPH,Humidity,HourlyPrecipIn,Conditions,Clouds,dailyrainin,SoftwareType,DateUTC
2013-02-10 00:01:00,-999.0,-99.9,30.09,NW,316,15.0,33.0,-999,-99.99,,,-99.99,,2013-02-10 05:01:00,
2013-02-10 00:11:00,21.0,-99.9,30.09,NW,321,19.0,30.0,-999,-99.99,,,-99.99,,2013-02-10 05:11:00,
2013-02-10 00:23:00,-999.0,-99.9,30.10,NW,321,21.0,31.0,-999,-99.99,,,-99.99,,2013-02-10 05:23:00,
2013-02-10 00:32:00,-999.0,-99.9,30.11,NW,323,16.0,32.0,-999,-99.99,,,-99.99,,2013-02-10 05:32:00,
2013-02-10 00:42:00,21.0,-99.9,30.11,NW,315,19.0,28.0,-999,-99.99,,,-99.99,,2013-02-10 05:42:00,
2013-02-10 00:52:00,-999.0,-99.9,30.12,NW,326,15.0,30.0,-999,-99.99,,,-99.99,,2013-02-10 05:52:00,
2013-02-10 01:02:00,-999.0,-99.9,30.13,NW,318,20.0,31.0,-999,-99.99,,,-99.99,,2013-02-10 06:02:00,
2013-02-10 01:11:00,21.0,-99.9,30.13,NW,319,19.0,30.0,-999,-99.99,,,-99.99,,2013-02-10 06:11:00,
2013-02-10 01:22:00,-999.0,-99.9,30.13,NW,323,20.0,33.0,-999,-99.99,,,-99.99,,2013-02-10 06:22:00,
2013-02-10 01:32:00,-999.0,-99.9,30.14,NW,322,22.0,32.0,-999,-99.99,,,-99.99,,2013-02-10 06:32:00,
2013-02-10 01:42:00,20.0,-99.9,30.14,NW,320,14.0,28.0,-999,-99.99,,,-99.99,,2013-02-10 06:42:00,
2013-02-10 01:52:00,-999.0,-99.9,30.14,NW,313,15.0,28.0,-999,-99.99,,,-99.99,,2013-02-10 06:52:00,
2013-02-10 02:01:00,-999.0,-99.9,30.15,NW,321,18.0,29.0,-999,-99.99,,,-99.99,,2013-02-10 07:01:00,
2013-02-10 02:11:00,20.0,-99.9,30.16,NW,320,18.0,30.0,-999,-99.99,,,-99.99,,2013-02-10 07:11:00,
2013-02-10 02:21:00,-999.0,-99.9,30.16,NW,314,15.0,28.0,-999,-99.99,,,-99.99,,2013-02-10 07:21:00,
2013-02-10 02:32:00,-999.0,-99.9,30.16,NNW,327,16.0,27.0,-999,-99.99,,,-99.99,,2013-02-10 07:32:00,
2013-02-10 02:42:00,20.0,-99.9,30.17,NW,320,15.0,26.0,-999,-99.99,,,-99.99,,2013-02-10 07:42:00,
2013-02-10 02:52:00,-999.0,-99.9,30.17,NW,324,19.0,28.0,-999,-99.99,,,-99.99,,2013-02-10 07:52:00,
2013-02-10 03:01:00,-999.0,-99.9,30.18,NW,323,19.0,26.0,-999,-99.99,,,-99.99,,2013-02-10 08:01:00,
2013-02-10 03:11:00,20.0,-99.9,30.18,NW,322,19.0,27.0,-999,-99.99,,,-99.99,,2013-02-10 08:11:00,
2013-02-10 03:21:00,-999.0,-99.9,30.18,NW,320,14.0,22.0,-999,-99.99,,,-99.99,,2013-02-10 08:21:00,
2013-02-10 03:32:00,-999.0,-99.9,30.19,NNW,329,17.0,25.0,-999,-99.99,,,-99.99,,2013-02-10 08:32:00,
2013-02-10 03:43:00,20.0,-99.9,30.19,NNW,330,16.0,28.0,-999,-99.99,,,-99.99,,2013-02-10 08:43:00,
2013-02-10 03:52:00,-999.0,-99.9,30.19,NNW,329,19.0,23.0,-999,-99.99,,,-99.99,,2013-02-10 08:52:00,
2013-02-10 04:02:00,-999.0,-99.9,30.20,NW,322,15.0,25.0,-999,-99.99,,,-99.99,,2013-02-10 09:02:00,
2013-02-10 04:11:00,-999.0,-99.9,30.20,NNW,328,16.0,27.0,-999,-99.99,,,-99.99,,2013-02-10 09:11:00,
2013-02-10 04:21:00,-999.0,-99.9,30.20,NNW,327,16.0,25.0,-999,-99.99,,,-99.99,,2013-02-10 09:21:00,
2013-02-10 04:32:00,-999.0,-99.9,30.21,NNW,327,15.0,26.0,-999,-99.99,,,-99.99,,2013-02-10 09:32:00,
2013-02-10 04:42:00,21.0,-99.9,30.21,NNW,327,15.0,26.0,-999,-99.99,,,-99.99,,2013-02-10 09:42:00,
2013-02-10 04:52:00,-999.0,-99.9,30.22,NNW,328,15.0,24.0,-999,-99.99,,,-99.99,,2013-02-10 09:52:00,
2013-02-10 05:01:00,-999.0,-99.9,30.22,NW,318,9.0,24.0,-999,-99.99,,,-99.99,,2013-02-10 10:01:00,
2013-02-10 05:11:00,21.0,-99.9,30.22,NW,316,13.0,23.0,-999,-99.99,,,-99.99,,2013-02-10 10:11:00,
2013-02-10 05:21:00,-999.0,-99.9,30.23,NW,318,13.0,27.0,-999,-99.99,,,-99.99,,2013-02-10 10:21:00,
2013-02-10 05:32:00,-999.0,-99.9,30.24,NW,322,14.0,25.0,-999,-99.99,,,-99.99,,2013-02-10 10:32:00,
2013-02-10 05:42:00,-999.0,-99.9,30.24,NW,322,15.0,20.0,-999,-99.99,,,-99.99,,2013-02-10 10:42:00,
2013-02-10 05:52:00,-999.0,-99.9,30.25,NW,324,12.0,25.0,-999,-99.99,,,-99.99,,2013-02-10 10:52:00,
2013-02-10 06:01:00,-999.0,-99.9,30.26,NW,318,15.0,21.0,-999,-99.99,,,-99.99,,2013-02-10 11:01:00,
2013-02-10 06:11:00,21.0,-99.9,30.26,NW,317,13.0,22.0,-999,-99.99,,,-99.99,,2013-02-10 11:11:00,
2013-02-10 06:22:00,-999.0,-99.9,30.26,NW,325,17.0,24.0,-999,-99.99,,,-99.99,,2013-02-10 11:22:00,
2013-02-10 06:32:00,-999.0,-99.9,30.27,NW,323,13.0,20.0,-999,-99.99,,,-99.99,,2013-02-10 11:32:00,
2013-02-10 06:42:00,21.0,-99.9,30.28,NW,319,13.0,22.0,-999,-99.99,,,-99.99,,2013-02-10 11:42:00,
2013-02-10 06:52:00,-999.0,-99.9,30.28,NW,322,15.0,25.0,-999,-99.99,,,-99.99,,2013-02-10 11:52:00,
2013-02-10 07:02:00,-999.0,-99.9,30.28,NW,324,15.0,23.0,-999,-99.99,,,-99.99,,2013-02-10 12:02:00,
2013-02-10 07:12:00,22.0,-99.9,30.28,NNW,328,16.0,24.0,-999,-99.99,,,-99.99,,2013-02-10 12:12:00,
2013-02-10 07:22:00,-999.0,-99.9,30.29,NNW,329,17.0,24.0,-999,-99.99,,,-99.99,,2013-02-10 12:22:00,
2013-02-10 07:32:00,-999.0,-99.9,30.29,NW,322,14.0,21.0,-999,-99.99,,,-99.99,,2013-02-10 12:32:00,
2013-02-10 07:42:00,-999.0,-99.9,30.30,NNW,331,16.0,23.0,-999,-99.99,,,-99.99,,2013-02-10 12:42:00,
2013-02-10 07:52:00,-999.0,-99.9,30.31,NW,321,11.0,21.0,-999,-99.99,,,-99.99,,2013-02-10 12:52:00,
2013-02-10 08:02:00,-999.0,-99.9,30.32,NW,322,15.0,25.0,-999,-99.99,,,-99.99,,2013-02-10 13:02:00,
2013-02-10 08:12:00,23.0,-99.9,30.32,NW,317,11.0,19.0,-999,-99.99,,,-99.99,,2013-02-10 13:12:00,
2013-02-10 08:21:00,-999.0,-99.9,30.33,NW,322,15.0,20.0,-999,-99.99,,,-99.99,,2013-02-10 13:21:00,
2013-02-10 08:32:00,-999.0,-99.9,30.33,NW,321,13.0,20.0,-999,-99.99,,,-99.99,,2013-02-10 13:32:00,
2013-02-10 08:42:00,24.0,-99.9,30.33,NW,321,13.0,22.0,-999,-99.99,,,-99.99,,2013-02-10 13:42:00,
2013-02-10 08:52:00,-999.0,-99.9,30.34,NW,326,13.0,20.0,-999,-99.99,,,-99.99,,2013-02-10 13:52:00,
2013-02-10 09:02:00,-999.0,-99.9,30.34,NNW,328,14.0,20.0,-999,-99.99,,,-99.99,,2013-02-10 14:02:00,
2013-02-10 09:11:00,24.0,-99.9,30.35,NNW,332,15.0,20.0,-999,-99.99,,,-99.99,,2013-02-10 14:11:00,
2013-02-10 09:22:00,-999.0,-99.9,30.35,NNW,337,13.0,18.0,-999,-99.99,,,-99.99,,2013-02-10 14:22:00,
2013-02-10 09:32:00,-999.0,-99.9,30.35,NNW,329,14.0,19.0,-999,-99.99,,,-99.99,,2013-02-10 14:32:00,
2013-02-10 09:42:00,-999.0,-99.9,30.36,NNW,329,13.0,20.0,-999,-99.99,,,-99.99,,2013-02-10 14:42:00,
2013-02-10 09:52:00,-999.0,-99.9,30.36,NW,322,14.0,20.0,-999,-99.99,,,-99.99,,2013-02-10 14:52:00,
2013-02-10 10:02:00,-999.0,-99.9,30.36,NNW,339,13.0,18.0,-999,-99.99,,,-99.99,,2013-02-10 15:02:00,
2013-02-10 10:12:00,25.0,-99.9,30.36,NNW,335,13.0,18.0,-999,-99.99,,,-99.99,,2013-02-10 15:12:00,
2013-02-10 10:22:00,-999.0,-99.9,30.36,NNW,332,12.0,21.0,-999,-99.99,,,-99.99,,2013-02-10 15:22:00,
2013-02-10 10:32:00,-999.0,-99.9,30.36,NNW,338,11.0,19.0,-999,-99.99,,,-99.99,,2013-02-10 15:32:00,
2013-02-10 10:42:00,25.0,-99.9,30.37,NNW,332,12.0,18.0,-999,-99.99,,,-99.99,,2013-02-10 15:42:00,
2013-02-10 10:52:00,-999.0,-99.9,30.37,NNW,334,12.0,18.0,-999,-99.99,,,-99.99,,2013-02-10 15:52:00,
2013-02-10 11:02:00,-999.0,-99.9,30.37,NNW,332,12.0,20.0,-999,-99.99,,,-99.99,,2013-02-10 16:02:00,
2013-02-10 11:12:00,-999.0,-99.9,30.37,NNW,346,11.0,19.0,-999,-99.99,,,-99.99,,2013-02-10 16:12:00,
2013-02-10 11:22:00,26.0,-99.9,30.37,NNW,343,11.0,19.0,-999,-99.99,,,-99.99,,2013-02-10 16:22:00,
2013-02-10 11:32:00,-999.0,-99.9,30.37,NNW,339,11.0,19.0,-999,-99.99,,,-99.99,,2013-02-10 16:32:00,
2013-02-10 11:42:00,28.0,-99.9,30.37,North,352,10.0,16.0,-999,-99.99,,,-99.99,,2013-02-10 16:42:00,
2013-02-10 11:52:00,-999.0,-99.9,30.37,NNW,340,9.0,15.0,-999,-99.99,,,-99.99,,2013-02-10 16:52:00,
2013-02-10 12:02:00,-999.0,-99.9,30.36,NNW,348,12.0,18.0,-999,-99.99,,,-99.99,,2013-02-10 17:02:00,
2013-02-10 12:12:00,28.0,-99.9,30.36,North,350,11.0,15.0,-999,-99.99,,,-99.99,,2013-02-10 17:12:00,
2013-02-10 12:22:00,-999.0,-99.9,30.36,North,349,9.0,17.0,-999,-99.99,,,-99.99,,2013-02-10 17:22:00,
2013-02-10 12:32:00,-999.0,-99.9,30.36,NNW,343,11.0,15.0,-999,-99.99,,,-99.99,,2013-02-10 17:32:00,
2013-02-10 12:42:00,-999.0,-99.9,30.36,NNW,343,8.0,16.0,-999,-99.99,,,-99.99,,2013-02-10 17:42:00,
2013-02-10 12:53:00,-999.0,-99.9,30.36,NNW,343,9.0,15.0,-999,-99.99,,,-99.99,,2013-02-10 17:53:00,
2013-02-10 13:02:00,-999.0,-99.9,30.36,NNW,338,9.0,18.0,-999,-99.99,,,-99.99,,2013-02-10 18:02:00,
2013-02-10 13:12:00,30.0,-99.9,30.36,NNW,341,8.0,15.0,-999,-99.99,,,-99.99,,2013-02-10 18:12:00,
2013-02-10 13:22:00,-999.0,-99.9,30.37,NNW,346,11.0,13.0,-999,-99.99,,,-99.99,,2013-02-10 18:22:00,
2013-02-10 13:32:00,-999.0,-99.9,30.36,NNW,327,10.0,15.0,-999,-99.99,,,-99.99,,2013-02-10 18:32:00,
2013-02-10 13:42:00,31.0,-99.9,30.36,NNW,343,9.0,14.0,-999,-99.99,,,-99.99,,2013-02-10 18:42:00,
2013-02-10 13:52:00,-999.0,-99.9,30.36,NNW,337,7.0,14.0,-999,-99.99,,,-99.99,,2013-02-10 18:52:00,
2013-02-10 14:02:00,-999.0,-99.9,30.36,North,352,9.0,14.0,-999,-99.99,,,-99.99,,2013-02-10 19:02:00,
2013-02-10 14:12:00,-999.0,-99.9,30.36,NNW,344,11.0,15.0,-999,-99.99,,,-99.99,,2013-02-10 19:12:00,
2013-02-10 14:22:00,-999.0,-99.9,30.36,NNW,332,8.0,14.0,-999,-99.99,,,-99.99,,2013-02-10 19:22:00,
2013-02-10 14:32:00,-999.0,-99.9,30.36,NNW,340,6.0,13.0,-999,-99.99,,,-99.99,,2013-02-10 19:32:00,
2013-02-10 14:43:00,32.0,-99.9,30.36,NW,325,7.0,12.0,-999,-99.99,,,-99.99,,2013-02-10 19:43:00,
2013-02-10 14:52:00,33.0,-99.9,30.36,WNW,295,6.0,11.0,-999,-99.99,,,-99.99,,2013-02-10 19:52:00,
2013-02-10 15:02:00,33.0,-99.9,30.36,WNW,294,6.0,10.0,-999,-99.99,,,-99.99,,2013-02-10 20:02:00,
2013-02-10 15:11:00,32.0,-99.9,30.36,WNW,295,5.0,11.0,-999,-99.99,,,-99.99,,2013-02-10 20:11:00,
2013-02-10 15:22:00,33.0,-99.9,30.36,WNW,291,5.0,10.0,-999,-99.99,,,-99.99,,2013-02-10 20:22:00,
2013-02-10 15:32:00,34.0,-99.9,30.36,West,267,5.0,9.0,-999,-99.99,,,-99.99,,2013-02-10 20:32:00,
2013-02-10 15:42:00,33.0,-99.9,30.36,West,259,5.0,10.0,-999,-99.99,,,-99.99,,2013-02-10 20:42:00,
2013-02-10 15:53:00,33.0,-99.9,30.37,WSW,254,7.0,13.0,-999,-99.99,,,-99.99,,2013-02-10 20:53:00,
2013-02-10 16:03:00,32.0,-99.9,30.37,West,261,7.0,10.0,-999,-99.99,,,-99.99,,2013-02-10 21:03:00,
2013-02-10 16:12:00,33.0,-99.9,30.37,West,260,5.0,9.0,-999,-99.99,,,-99.99,,2013-02-10 21:12:00,
2013-02-10 16:22:00,33.0,-99.9,30.37,West,263,6.0,8.0,-999,-99.99,,,-99.99,,2013-02-10 21:22:00,
2013-02-10 16:32:00,32.0,-99.9,30.37,West,275,6.0,13.0,-999,-99.99,,,-99.99,,2013-02-10 21:32:00,
2013-02-10 16:42:00,-999.0,-99.9,30.37,West,267,6.0,14.0,-999,-99.99,,,-99.99,,2013-02-10 21:42:00,
2013-02-10 16:52:00,-999.0,-99.9,30.38,West,271,6.0,11.0,-999,-99.99,,,-99.99,,2013-02-10 21:52:00,
2013-02-10 17:02:00,-999.0,-99.9,30.37,West,281,5.0,8.0,-999,-99.99,,,-99.99,,2013-02-10 22:02:00,
2013-02-10 17:12:00,31.0,-99.9,30.37,WNW,285,5.0,9.0,-999,-99.99,,,-99.99,,2013-02-10 22:12:00,
2013-02-10 17:22:00,-999.0,-99.9,30.37,West,262,4.0,7.0,-999,-99.99,,,-99.99,,2013-02-10 22:22:00,
2013-02-10 17:32:00,-999.0,-99.9,30.36,West,279,3.0,5.0,-999,-99.99,,,-99.99,,2013-02-10 22:32:00,
2013-02-10 17:42:00,30.0,-99.9,30.36,WNW,282,2.0,4.0,-999,-99.99,,,-99.99,,2013-02-10 22:42:00,
2013-02-10 17:53:00,-999.0,-99.9,30.36,West,261,1.0,3.0,-999,-99.99,,,-99.99,,2013-02-10 22:53:00,
2013-02-10 18:02:00,-999.0,-99.9,30.37,West,271,2.0,5.0,-999,-99.99,,,-99.99,,2013-02-10 23:02:00,
2013-02-10 18:12:00,30.0,-99.9,30.38,West,261,4.0,4.0,-999,-99.99,,,-99.99,,2013-02-10 23:12:00,
2013-02-10 18:22:00,-999.0,-99.9,30.37,West,263,3.0,6.0,-999,-99.99,,,-99.99,,2013-02-10 23:22:00,
2013-02-10 18:32:00,-999.0,-99.9,30.38,West,269,4.0,8.0,-999,-99.99,,,-99.99,,2013-02-10 23:32:00,
2013-02-10 18:42:00,29.0,-99.9,30.38,West,274,5.0,7.0,-999,-99.99,,,-99.99,,2013-02-10 23:42:00,
2013-02-10 18:52:00,-999.0,-99.9,30.38,West,271,4.0,6.0,-999,-99.99,,,-99.99,,2013-02-10 23:52:00,
2013-02-10 19:02:00,-999.0,-99.9,30.38,West,267,4.0,6.0,-999,-99.99,,,-99.99,,2013-02-11 00:02:00,
2013-02-10 19:11:00,29.0,-99.9,30.38,West,269,4.0,6.0,-999,-99.99,,,-99.99,,2013-02-11 00:11:00,
2013-02-10 19:22:00,-999.0,-99.9,30.38,West,270,2.0,5.0,-999,-99.99,,,-99.99,,2013-02-11 00:22:00,
2013-02-10 19:32:00,-999.0,-99.9,30.38,West,273,2.0,5.0,-999,-99.99,,,-99.99,,2013-02-11 00:32:00,
2013-02-10 19:42:00,29.0,-99.9,30.38,WSW,253,2.0,4.0,-999,-99.99,,,-99.99,,2013-02-11 00:42:00,
2013-02-10 19:52:00,-999.0,-99.9,30.38,West,277,2.0,4.0,-999,-99.99,,,-99.99,,2013-02-11 00:52:00,
2013-02-10 20:02:00,-999.0,-99.9,30.38,West,274,3.0,5.0,-999,-99.99,,,-99.99,,2013-02-11 01:02:00,
2013-02-10 20:11:00,-999.0,-99.9,30.38,West,270,4.0,5.0,-999,-99.99,,,-99.99,,2013-02-11 01:11:00,
2013-02-10 20:22:00,29.0,-99.9,30.38,West,268,4.0,6.0,-999,-99.99,,,-99.99,,2013-02-11 01:22:00,
2013-02-10 20:32:00,-999.0,-99.9,30.38,West,264,4.0,7.0,-999,-99.99,,,-99.99,,2013-02-11 01:32:00,
2013-02-10 20:42:00,29.0,-99.9,30.38,West,267,5.0,7.0,-999,-99.99,,,-99.99,,2013-02-11 01:42:00,
2013-02-10 20:52:00,-999.0,-99.9,30.39,WSW,253,4.0,6.0,-999,-99.99,,,-99.99,,2013-02-11 01:52:00,
2013-02-10 21:01:00,-999.0,-99.9,30.39,WSW,256,4.0,5.0,-999,-99.99,,,-99.99,,2013-02-11 02:01:00,
2013-02-10 21:11:00,28.0,-99.9,30.39,WSW,247,5.0,6.0,-999,-99.99,,,-99.99,,2013-02-11 02:11:00,
2013-02-10 21:21:00,-999.0,-99.9,30.39,WSW,249,4.0,6.0,-999,-99.99,,,-99.99,,2013-02-11 02:21:00,
2013-02-10 21:32:00,-999.0,-99.9,30.39,WSW,252,6.0,7.0,-999,-99.99,,,-99.99,,2013-02-11 02:32:00,
2013-02-10 21:42:00,-999.0,-99.9,30.40,WSW,251,5.0,7.0,-999,-99.99,,,-99.99,,2013-02-11 02:42:00,
2013-02-10 21:52:00,-999.0,-99.9,30.40,WSW,258,5.0,8.0,-999,-99.99,,,-99.99,,2013-02-11 02:52:00,
2013-02-10 22:02:00,-999.0,-99.9,30.39,WSW,248,3.0,6.0,-999,-99.99,,,-99.99,,2013-02-11 03:02:00,
2013-02-10 22:11:00,29.0,-99.9,30.39,WSW,245,4.0,5.0,-999,-99.99,,,-99.99,,2013-02-11 03:11:00,
2013-02-10 22:22:00,-999.0,-99.9,30.39,SW,236,3.0,6.0,-999,-99.99,,,-99.99,,2013-02-11 03:22:00,
2013-02-10 22:32:00,-999.0,-99.9,30.38,WSW,240,2.0,4.0,-999,-99.99,,,-99.99,,2013-02-11 03:32:00,
2013-02-10 22:42:00,30.0,-99.9,30.38,WSW,240,3.0,4.0,-999,-99.99,,,-99.99,,2013-02-11 03:42:00,
2013-02-10 22:52:00,-999.0,-99.9,30.38,WSW,242,4.0,4.0,-999,-99.99,,,-99.99,,2013-02-11 03:52:00,
2013-02-10 23:02:00,-999.0,-99.9,30.38,WSW,240,4.0,6.0,-999,-99.99,,,-99.99,,2013-02-11 04:02:00,
2013-02-10 23:11:00,-999.0,-99.9,30.38,WSW,242,4.0,5.0,-999,-99.99,,,-99.99,,2013-02-11 04:11:00,
2013-02-10 23:22:00,-999.0,-99.9,30.38,WSW,240,3.0,6.0,-999,-99.99,,,-99.99,,2013-02-11 04:22:00,
2013-02-10 23:32:00,-999.0,-99.9,30.38,WSW,245,2.0,5.0,-999,-99.99,,,-99.99,,2013-02-11 04:32:00,
2013-02-10 23:42:00,29.0,-99.9,30.38,WSW,243,2.0,4.0,-999,-99.99,,,-99.99,,2013-02-11 04:42:00,
2013-02-10 23:52:00,-999.0,-99.9,30.37,SW,223,2.0,2.0,-999,-99.99,,,-99.99,,2013-02-11 04:52:00,